Preview of NWS' New Version of Forecast
This preview is not operational and should not be used for support decisions.
Latest weather observations around

Mount Ida (KMWT)

Using English Units (Switch to International System of Units)
Date/ Time (CDT) Wind (mph) Vis. (mi) Weather Sky Cond. Temp (°F) Rel. Humidity Wind Chill (°F) Heat Index (°F) Pressure Precip. (in)
Air Dwpt 6 hour Altimeter (inHg) Sea level (inHg) 1 hr 3 hr 6 hr
Max Min
Apr 22 23:53 5 10 Cloudy OVC011 53 51     93%     29.92 29.92      
Apr 22 21:53 WNW 6 10 Cloudy OVC014 53 50     89%     29.93 29.93      
Apr 22 20:53 3 10 Cloudy OVC014 53 50     89%     29.92 29.92      
Apr 22 20:27   10 Cloudy OVC014 54 50     86%     29.92        
Apr 22 19:53 3 10 Cloudy OVC015 54 50     86%     29.92 29.91      
Apr 22 18:53 NW 6 10 Cloudy OVC015 54 50     86%     29.91 29.91      
Apr 22 18:17 7 10 Cloudy OVC013 54 50     86%     29.91        
Apr 22 17:53 NW 8 10 Cloudy OVC015 55 50     83%     29.91 29.9      
Apr 22 16:53 NW 8 10 Cloudy BKN016 OVC032 55 50     83%     29.9 29.9      
Apr 22 15:53 NW 9 10 Cloudy OVC016 56 51     84%     29.91 29.91      
Apr 22 14:53 5 10 Cloudy OVC020 57 51     81%     29.92 29.92      
Apr 22 13:53 7 10 Cloudy OVC016 57 51     81%     29.93 29.93      
Apr 22 13:15 7 10 Cloudy OVC015 57 52     83%     29.92        
Apr 22 12:53 N 6 10 Cloudy OVC014 57 52     83%     29.92 29.92     0
Apr 22 11:53 7 10 Cloudy OVC012 56 53     90%     29.93 29.93      
Apr 22 10:53   10 Cloudy OVC010 56 53     90%     29.93 29.93      
Apr 22 09:53 NNW 6 10 Cloudy BKN006 OVC010 55 55     100%     29.93 29.92   0  
Apr 22 09:41 6 10 Cloudy BKN008 OVC012 56 55     97%     29.93        
Apr 22 08:53 3 10 Cloudy BKN011 OVC033 57 56     96%     29.92 29.92      
Apr 22 08:46 Calm 10 Cloudy FEW007 BKN011 OVC031 57 57     100%     29.92        
Apr 22 08:33 Calm 10 Cloudy FEW006 SCT012 OVC032 57 57     100%     29.92        
Apr 22 08:26 Calm 10 Cloudy SCT008 BKN012 OVC030 57 57     100%     29.92        
Apr 22 08:07 Calm 10 Cloudy BKN008 BKN012 OVC025 57 57     100%     29.92        
Apr 22 08:02 Calm 7 Cloudy BKN010 OVC025 57 57     100%     29.92        
Apr 22 07:53 Calm 4 Fog/Mist SCT011 OVC025 57 57     100%     29.92 29.92 0    
Apr 22 07:26 NW 3 5 Fog/Mist FEW005 BKN012 OVC020 57 57     100%     29.92        
Apr 22 06:53 Calm 6 Fog/Mist SCT004 SCT009 OVC015 57 57     100%     29.91 29.91      
Apr 22 06:45 Calm 3 Fog/Mist BKN004 OVC011 57 57     100%     29.91        
Apr 22 06:25 Calm 2 Fog/Mist OVC004 57 57     100%     29.91        
Apr 22 06:10 NW 3 2 Fog/Mist BKN005 OVC009 57 57     100%     29.91        
Apr 22 05:42 Calm 6 Fog/Mist BKN003 OVC009 57 57     100%     29.91        
Apr 22 05:13 Calm 5 Fog/Mist OVC009 57 57     100%     29.91        
Apr 22 04:53 Calm 5 Fog/Mist OVC010 57 57     100%     29.9 29.9      
Apr 22 04:09 Calm 6 Fog/Mist BKN014 BKN027 OVC033 57 57     100%     29.9        
Apr 22 03:22 WNW 3 6 Fog/Mist OVC009 57 57     100%     29.91        
Apr 22 02:53 Calm 10 Cloudy BKN010 OVC014 58 57     97%     29.89 29.88      
Apr 22 02:45 ESE 3 10 Cloudy OVC012 57 57     100%     29.9        
Apr 22 02:19 Calm 10 Cloudy BKN009 OVC015 57 57     100%     29.93        
Apr 22 01:53 ESE 5 10 Cloudy OVC010 57 57     100%     29.94 29.92      
Apr 22 00:53 Calm 7 Cloudy OVC012 56 56     100%     29.96 29.95     0
Apr 22 00:12 Calm 10 Cloudy OVC014 56 56     100%     29.96        
Apr 21 23:53 Calm 10 Cloudy BKN016 OVC023 56 56     100%     29.96 29.95 0    
Apr 21 23:27 Calm 8 Light Rain FEW015 BKN024 OVC037 56 56     100%     29.98   0    
Apr 21 22:53 Calm 10 Cloudy FEW029 BKN038 OVC055 56 56     100%     30 29.99 0    
Apr 21 21:53 Calm 9 Light Rain FEW018 BKN047 OVC060 56 56     100%     30.01 30 0 0  
Apr 21 20:53 Calm 3 Rain and Fog/Mist OVC038 56 56     100%     30.01 30.01 0    
Apr 21 20:39 Calm 2.5 Rain and Fog/Mist BKN037 OVC048 57 57     100%     30   0    
Apr 21 19:53 Calm 5 Rain and Fog/Mist FEW043 BKN080 OVC090 57 57     100%     29.98 29.98 0    
Apr 21 18:53 Calm 6 Light Rain and Fog/Mist FEW044 BKN060 OVC085 59 57     93%     29.98 29.98 0   0
Apr 21 17:53 SE 5 10 Light Rain FEW048 BKN090 OVC110 62 55     78%     29.99 29.99 0    
Apr 21 16:53 SE 6 10 Light Rain FEW055 SCT070 OVC095 65 52     63%     29.99 29.99 0    
Apr 21 15:53 SE 7 10 Mostly Cloudy BKN060 67 49     52%     30.04 30.04      
Apr 21 14:53 ESE 8 10 Clear CLR 67 49     52%     30 30      
Apr 21 13:53 SSE 9 10 Clear CLR 68 46     45%     30.01 30.01      
Apr 21 12:53 SE 11 10 Clear CLR 68 47     47%     30.03 30.03      
Apr 21 11:53 S 13 10 Clear CLR 67 46     47%     30.08 30.08      
Apr 21 10:53 SE 9 10 Clear CLR 62 46     56%     30.1 30.1      
Apr 21 09:53 ESE 3 10 Clear CLR 59 46     62%     30.13 30.13      
Apr 21 08:53 Calm 10 Clear CLR 54 46     74%     30.13 30.13      
Apr 21 07:53 SE 3 10 Clear CLR 50 45     83% 49   30.13 30.13      
Apr 21 06:53 Calm 10 Clear CLR 46 45     96%     30.14 30.14     0
Apr 21 05:53 Calm 10 Clear CLR 44 43     96%     30.14 30.14 0    
Apr 21 04:53 Calm 10 Clear CLR 43 41     93%     30.14 30.14      
Apr 21 03:53 Calm 10 Clear CLR 43 40     89%     30.14 30.14      
Apr 21 02:53 Calm 10 Clear CLR 44 39     82%     30.14 30.14      
Apr 21 01:53 Calm 10 Clear CLR 44 41     89%     30.15 30.15      
Apr 21 00:53 Calm 10 Clear CLR 46 39     76%     30.16 30.16      
Apr 20 23:53 Calm 10 Clear CLR 48 38     68%     30.16 30.16      
Apr 20 22:53 Calm 10 Clear CLR 51 38     61%     30.16 30.16      
Apr 20 21:53 Calm 10 Clear CLR 55 38     52%     30.16 30.16      
Apr 20 20:53 E 3 10 Clear CLR 57 36     45%     30.16 30.17      
Apr 20 19:53 E 3 10 Clear CLR 61 34     36%     30.16 30.17      
Apr 20 18:53 SE 7 10 Clear CLR 64 34     33%     30.16 30.16      
Apr 20 17:53 7 10 Clear CLR 66 34     30%     30.17 30.17      
Apr 20 16:53 E 8 10 Clear CLR 67 34     29%     30.19 30.19      
Apr 20 15:53 5 10 Clear CLR 66 36     33%     30.22 30.22      
Apr 20 14:53 5 10 Clear CLR 64 36     35%     30.25 30.25      
Apr 20 13:53 3 10 Clear CLR 63 36     37%     30.28 30.29      
Apr 20 12:53 5 10 Clear CLR 60 36     40%     30.32 30.32      
Apr 20 11:53 SE 10 10 Clear CLR 58 36     44%     30.33 30.34      
Apr 20 10:53 ESE 8 10 Clear CLR 56 36     47%     30.35 30.35      
Apr 20 09:53 ESE 8 10 Clear CLR 52 35     52%     30.37 30.38      
Apr 20 08:53 7 7 Clear CLR 49 37     63% 46   30.37 30.38      
Apr 20 07:53 Calm 10 Clear CLR 41 39     93%     30.38 30.39      
Apr 20 06:53 Calm 10 Clear CLR 36 36     100%     30.37 30.38      
Apr 20 05:53 Calm 10 Clear CLR 37 36     96%     30.34 30.35      
Apr 20 04:53 Calm 10 Clear CLR 37 36     96%     30.32 30.33      
Apr 20 03:53 Calm 10 Clear CLR 39 37     93%     30.32 30.32      
Apr 20 02:53 Calm 10 Clear CLR 40 38     93%     30.32 30.33      
Apr 20 01:53 Calm 10 Clear CLR 42 39     89%     30.33 30.34      
Apr 20 00:53 Calm 10 Clear CLR 43 40     89%     30.33 30.34      
Jun 12 07:23 Calm 2.5 Fog/Mist OVC009 74 72     94%   75 30        
Jun 12 00:53 SE 7 10 Cloudy BKN021 OVC028 76 69     79%   77 29.97 29.93      
Jun 11 20:53 Calm 10 Clear CLR 77 64     64%   77 29.95 29.92      
Jun 11 18:53 SE 6 10 Clear CLR 85 60     43%   85 29.94 29.9      
Jun 11 11:53   10 Partly Cloudy FEW038 SCT047 83 64     53%   84 30.01 29.97      
Jun 08 12:53 NNE 3 10 Partly Cloudy SCT060 79 50     36%   78 30.01 29.99      
Jun 06 06:31 Calm 2 Fog/Mist BKN002 64 63     96%     29.83        
Jun 06 04:56 Calm 2.5 Fog/Mist SCT002 BKN010 65 63     93%     29.82        
Jun 06 03:23 Calm 2 Fog/Mist SCT002 66 64     93%     29.81        
Jun 06 02:33 Calm 2 Fog/Mist SCT002 66 64     93%     29.81        
Jun 05 22:28 Calm 1.5 Clear   70 68     93%     29.81